Showing default

RAY 1.0, 62627

Orbit data source: Space-Track

RAY 1.0, 62627 is a payload satellite owned by Inversion Space (US) in SSO that was launched on Tue, 14 Jan 2025 UTC via an FALCON 9 launch vehicle from the Air Force Western Test Range (AFWTR). Payload-class satellites include a variety of spacecraft equipped with specific instruments for various scientific and technological missions. These include communications satellites like Starlink; space stations such as the ISS; scientific satellites like the Hubble; Earth observation satellites from companies like Planet Labs, Umbra, and HawkEye 360; GPS; miniature CubeSats for education and research; and military/defense satellites.

Loading next visibility...
Identifier
62627, 2025-009U
Orbit
SSO
Country
Flag of USUS
Related business
Manufacturer
Inversion Space
Mission
Operational Commercial Technology
Bus & Motor
RAY, Unknown motor
Mass
63 kg wet, 32 kg dry
Launch date (UTC)
2025-01-14 (2 years ago)
Launch vehicle
FALCON 9
Launch site
Air Force Western Test Range (AFWTR)
Object type
Payload
Rocket body
Debris
Shape & HBR
Box + Cone, 0.7 m
Radar Cross Section
0.875 m², Medium (>0.1 m² and < 1m²)

Expand to show TLE details & history
Last TLE update: 5 hours ago

TLE from 5 hours ago
0 RAY 1.0
1 62627U 25009U   26256.24493395  .00002199  00000-0  10168-3 0  9999
2 62627  97.3929 332.9774 0007809 338.0788  22.0113 15.21182068 92060
Epoch: 2026-09-13T05:52Z
TLE epoch observation values (Epoch: 2026-09-13T05:52:42.293Z)
Latitude
0.00003°
Longitude
-107.44118°
Altitude
500.384 km
Speed
7.617 km/s
True Right ascension
22h 11m 54s
True Declination
0° 00' 00"
Sunlit
Object was in full shadow at epoch
Visualization orbit readout
Latitude
Unknown
Longitude
Unknown
Altitude
Unknown
Speed
Unknown
Apparent Right ascension
Unknown
Apparent Declination
Unknown
Sunlit
N/A
Visualization observer readout
Local Sidereal Time
03:33:02
Azimuth
Unknown
Elevation
Unknown
Doppler factor
Unknown
Orbital elements
Apogee altitude
504.608 km
Perigee altitude
493.867 km
Semi-major axis
6,877.375 km
Eccentricity
0.00078
Inclination
97.3929°
RAAN
332.9774°
Arg. of periapsis
338.0788°
True anomaly
22.04487°
Mean anomaly
22.0113°
Eccentric anomaly
22.02808°
Mean motion
3.80548 °/min
Orbital period
94.6 mins
BSTAR
0.00010168
Loading maneuver chart data...
Computing Atmospheric mass density...
Loading historical data...
Loading historical data...
Loading historical data...
Loading historical data...
Loading historical data...
Loading historical data...
Loading historical data...

Documentation

Showing up to 5 results
|